Wind_Speed
18 18 18 17 16 15 15 14 14 14 14 14 13 13 13 13 13 13 14 14 14 14 14 13 13 13 13 12 13 13 13 12 12 12 11 11 10 10 9 9 9 9 9 9 9 9 9 9 9 10 10 11 11 11 11 11 11 11 11 12 12 12 12 12 12 13 14 14 13 14 14 14 14 14 14 15 14 13 13 12 12 11 11 12 10
17 18 18 18 18 18 17 16 16 16 16 16 15 15 15 15 15 15 16 16 16 15 15 15 15 14 14 14 14 13 13 13 12 12 12 11 11 10 9 9 9 9 8 8 8 8 8 9 9 10 10 10 11 11 12 12 12 12 12 13 13 13 13 14 14 14 15 15 14 14 14 14 14 14 14 14 14 14 14 14 13 11 11 13 12
17 17 18 18 18 18 18 18 18 18 18 17 17 17 17 17 17 17 17 17 17 17 16 16 16 16 15 15 15 15 14 14 13 13 13 12 11 11 10 10 10 9 9 8 8 8 8 8 9 9 10 10 10 10 11 11 12 12 13 13 14 14 14 15 15 15 16 16 16 15 14 13 13 13 13 14 14 14 14 15 14 13 12 13 13
19 18 18 18 18 18 19 20 20 20 19 19 18 18 18 18 18 18 18 18 18 18 17 18 17 17 17 16 16 16 16 15 14 14 13 13 12 12 11 11 11 11 10 10 10 9 9 9 9 9 10 9 9 9 10 11 11 12 12 13 14 14 14 15 15 16 16 17 17 15 14 13 12 12 12 12 13 13 14 14 14 14 13 13 13
21 21 20 19 19 18 19 20 20 21 21 21 20 20 20 19 19 20 20 19 19 18 19 19 19 18 18 18 17 17 17 16 16 15 15 14 13 13 13 13 12 12 12 12 12 11 11 11 11 11 11 10 10 10 11 11 12 12 12 13 13 13 14 14 15 15 15 16 16 15 14 12 11 10 9 10 11 12 13 13 13 13 14 14 13
24 24 23 23 22 21 21 21 21 21 22 22 22 22 22 21 21 21 21 21 21 21 20 20 20 19 19 19 19 18 18 17 17 16 15 15 15 15 15 14 14 14 14 14 13 13 13 13 13 13 13 12 12 12 12 13 13 13 13 14 14 14 14 14 15 15 15 15 15 14 13 12 10 9 8 8 10 11 12 13 14 14 14 15 14
25 26 26 26 26 25 24 23 23 23 23 23 23 23 23 23 23 23 23 23 23 23 23 22 22 21 21 20 20 19 19 18 18 17 17 17 17 16 16 16 16 16 16 16 16 15 16 15 16 16 15 15 15 14 14 15 15 15 15 15 15 15 15 15 15 16 16 16 16 15 14 13 12 10 9 9 10 11 12 14 15 16 15 15 15
26 26 27 28 28 28 28 27 26 25 25 24 24 24 24 24 24 25 25 25 24 25 24 24 23 22 21 21 22 22 21 20 19 19 19 19 18 17 17 17 18 18 18 17 17 17 17 17 17 17 17 17 17 17 16 16 16 16 16 16 17 17 17 17 17 17 17 18 18 18 17 16 15 14 13 12 12 13 15 15 16 17 17 17 17
27 27 27 27 28 29 29 29 29 28 27 26 26 25 25 25 25 26 27 27 26 26 25 25 24 23 23 22 23 24 23 22 22 21 20 21 21 20 19 18 18 19 19 18 18 17 17 18 17 17 17 17 17 18 18 18 18 18 17 17 18 18 18 18 19 19 19 19 20 20 20 19 19 18 17 16 16 17 18 18 17 18 19 19 20
28 28 28 28 28 28 27 28 29 29 30 29 28 28 28 27 26 26 27 27 27 27 26 27 26 25 25 25 24 25 25 24 24 23 22 23 23 22 20 18 18 20 20 19 19 18 18 17 17 16 17 17 17 18 18 18 19 18 18 17 17 18 18 18 19 19 19 20 20 20 21 21 21 21 21 20 19 19 19 18 18 18 18 18 20
31 32 30 29 29 28 27 27 27 28 29 30 30 30 30 29 28 28 27 27 27 27 28 28 28 28 28 28 28 28 26 25 25 25 24 24 24 23 23 21 20 20 21 20 20 19 19 19 19 18 17 16 17 18 17 17 18 18 17 17 17 17 17 18 18 18 18 19 20 20 20 21 21 22 22 21 20 19 18 17 16 17 17 17 18
31 34 33 31 30 30 28 27 27 27 28 28 29 30 30 30 30 30 30 29 29 29 30 30 30 30 30 30 30 30 28 27 28 27 25 25 25 25 25 24 23 23 22 21 21 21 21 21 21 21 19 18 18 18 17 17 18 18 17 18 18 18 18 18 18 18 18 18 19 19 20 19 20 20 21 20 19 18 17 17 16 15 16 16 16
27 30 31 31 31 31 31 30 29 29 29 28 28 29 29 29 31 32 32 32 31 32 32 32 32 33 32 31 32 30 29 29 30 29 28 27 27 27 27 27 26 26 25 24 23 23 22 23 23 23 23 21 19 20 19 19 19 19 19 19 20 19 19 19 18 18 18 18 19 19 20 19 18 19 19 19 18 18 18 17 17 16 16 16 16
25 26 28 29 31 33 33 33 32 32 31 31 31 30 29 28 30 31 32 33 34 34 35 35 35 35 34 33 32 30 29 31 31 30 30 30 29 29 29 29 28 28 28 27 26 25 24 24 25 25 25 23 22 22 22 20 20 20 20 20 21 21 21 20 20 19 19 19 19 19 20 20 19 19 19 19 18 18 19 18 19 18 17 17 17
25 25 26 27 29 32 34 35 34 34 34 34 34 32 31 31 32 33 32 33 34 36 37 38 38 38 37 36 34 31 31 32 32 32 32 31 30 30 30 30 30 29 29 28 26 26 26 26 26 25 25 25 24 25 25 23 22 22 21 21 22 22 22 22 22 21 20 20 19 19 20 20 20 21 22 22 21 21 20 20 22 21 19 18 20
27 26 26 26 28 30 34 36 37 37 36 36 35 34 33 34 35 36 36 36 36 37 39 40 40 40 40 39 35 33 34 34 33 34 33 32 32 31 31 31 30 29 29 27 25 26 27 27 26 26 26 25 26 27 27 26 25 23 23 23 23 23 24 24 23 23 23 22 21 21 21 21 22 22 23 24 25 24 23 23 24 24 22 21 23
30 29 28 29 29 29 32 34 36 37 36 35 35 36 36 37 37 37 37 38 39 40 41 42 40 37 38 40 37 36 38 38 36 35 34 33 33 32 31 30 29 28 28 27 26 27 28 27 25 25 26 26 27 28 28 27 27 26 25 24 25 25 24 25 24 24 24 25 24 24 24 23 23 24 25 26 27 27 25 24 26 27 26 25 25
32 32 31 31 32 31 31 31 31 34 35 35 36 37 37 36 36 36 36 37 39 40 41 44 43 39 40 41 38 37 40 40 39 37 36 36 35 34 32 30 29 29 30 28 27 27 27 28 26 26 27 28 28 29 29 28 28 28 27 26 26 25 25 25 26 25 25 24 25 26 26 26 25 24 25 27 27 27 26 25 27 29 27 27 26
34 33 32 33 33 32 31 30 29 31 33 34 35 37 37 36 36 37 37 36 38 39 40 41 42 42 44 44 40 39 42 43 42 41 39 38 37 36 34 31 31 31 31 29 27 27 28 29 29 28 29 30 31 31 30 30 30 29 29 28 27 26 26 27 28 27 26 25 26 27 28 27 26 25 26 27 27 28 28 27 28 29 28 27 28
35 34 33 33 33 32 32 31 31 30 30 31 31 33 34 36 37 37 37 36 37 39 39 37 37 39 43 45 43 43 45 45 44 43 42 41 39 38 36 35 34 33 32 30 29 29 30 31 31 32 33 33 33 32 32 32 32 32 31 30 29 28 28 28 29 29 28 27 28 29 29 28 27 26 27 28 27 28 30 30 31 31 29 28 29
35 35 35 35 34 33 32 33 33 32 31 30 30 28 28 29 32 33 33 33 34 36 36 34 35 37 40 41 42 44 46 45 43 41 41 41 41 40 39 38 36 34 33 32 32 32 32 32 32 35 36 35 35 34 34 34 34 34 34 33 32 31 30 30 30 30 29 29 30 30 30 29 28 27 28 29 28 29 31 32 33 33 31 28 27
36 36 36 36 35 34 34 35 35 35 34 33 32 30 28 27 26 26 27 27 27 27 28 27 27 29 33 35 38 41 44 43 40 39 39 39 40 40 39 39 38 36 35 35 35 35 35 35 35 36 36 35 35 35 35 35 35 35 35 35 35 34 33 32 32 31 31 31 31 32 32 31 30 30 31 31 31 31 32 33 35 36 34 31 28
38 38 37 35 34 33 33 34 35 36 34 31 30 31 31 30 28 27 26 26 25 24 23 21 20 21 23 25 26 30 36 39 39 39 38 38 37 37 36 37 37 36 37 37 37 37 38 37 36 35 34 34 33 34 36 38 38 38 37 36 36 36 36 35 34 33 33 33 33 34 35 34 34 33 33 34 34 34 35 36 37 38 38 37 34
39 39 38 37 37 36 34 33 34 35 34 31 29 31 33 32 31 30 29 28 28 27 26 25 23 22 21 20 19 20 24 28 32 34 35 36 36 37 37 37 37 37 37 38 39 39 39 39 38 37 36 36 35 36 38 40 40 40 39 38 37 37 37 37 36 36 36 36 36 37 37 37 37 36 35 35 36 36 37 38 39 39 40 39 38
40 39 38 37 36 35 35 35 34 33 34 33 31 30 31 32 31 31 31 31 31 30 30 28 26 24 22 22 21 18 16 16 19 22 25 27 29 30 31 31 32 34 35 37 38 38 38 38 37 36 36 36 36 38 39 40 40 39 38 38 37 36 37 38 38 39 39 39 39 39 39 39 38 37 36 36 36 36 36 37 38 39 39 39 39
39 38 37 36 35 34 35 35 32 31 32 32 30 28 28 29 30 30 29 29 29 28 27 27 25 24 23 22 21 19 16 15 15 15 16 19 21 21 22 24 25 27 28 29 31 31 31 31 30 30 30 31 32 33 34 35 35 34 34 35 35 34 36 38 40 40 41 40 40 40 40 40 39 38 38 38 38 38 38 37 37 38 39 39 39
40 38 37 36 36 36 36 35 32 31 31 30 29 29 29 30 29 28 26 27 27 25 26 26 26 26 27 26 25 23 20 19 19 19 21 23 24 25 25 26 26 26 27 28 29 30 31 31 30 30 31 31 31 31 31 31 30 30 30 32 32 33 35 37 38 39 39 39 40 40 40 41 41 40 40 40 40 40 40 39 38 37 38 38 38
41 40 38 36 36 35 35 34 32 32 31 30 29 31 32 32 30 28 27 28 28 27 27 28 27 27 27 28 29 28 27 27 26 26 28 29 29 29 28 27 27 28 28 29 30 31 31 32 32 32 33 33 34 34 34 34 33 32 32 32 32 33 35 37 37 38 38 39 39 40 41 41 42 42 41 41 42 42 42 42 41 40 40 40 40
42 41 39 37 36 35 34 33 32 31 31 30 29 30 32 32 30 30 31 31 29 28 28 29 29 28 27 26 27 28 29 29 29 29 30 31 32 32 31 31 31 31 31 31 32 32 32 32 32 33 33 34 35 35 35 35 35 35 35 35 36 36 37 38 39 40 41 41 41 42 42 43 43 43 43 43 43 44 44 44 44 44 44 44 43
43 42 41 39 37 36 34 33 33 32 31 31 30 30 31 31 31 32 34 34 33 32 32 31 32 33 32 30 29 29 29 30 30 31 33 34 34 34 34 34 34 34 34 34 35 35 34 34 34 34 35 35 36 36 36 36 37 37 37 38 39 40 41 41 42 43 44 44 45 45 45 46 46 46 46 46 46 47 47 47 47 47 47 47 47
44 43 42 40 39 38 37 35 35 34 33 33 32 31 31 31 31 32 34 35 34 34 33 33 34 35 36 36 35 34 34 35 35 36 36 36 36 36 36 37 37 37 37 37 37 37 37 37 37 37 37 38 38 38 38 38 39 39 39 40 40 41 43 43 44 45 45 46 46 46 47 48 48 49 49 49 49 49 50 50 50 50 50 50 50
45 44 43 42 41 40 40 39 38 37 37 36 36 35 34 34 34 34 34 34 34 34 34 34 34 35 36 37 37 37 37 37 38 38 38 38 38 38 39 39 39 39 39 39 40 40 41 40 40 40 40 40 40 40 41 41 41 41 42 43 43 43 44 45 46 46 47 48 48 48 49 49 50 50 51 51 51 51 52 52 52 52 52 53 53
47 46 45 45 45 44 44 43 42 41 41 40 40 40 39 39 39 38 38 37 37 37 36 36 36 36 37 38 38 38 38 39 39 39 40 40 41 41 41 41 42 42 42 42 42 43 43 43 44 44 43 43 43 43 43 43 43 44 44 45 46 46 47 48 49 49 50 50 51 51 52 52 53 53 54 54 54 54 55 55 55 55 55 55 55
48 48 48 48 48 47 47 46 45 44 43 43 43 43 43 43 43 43 43 42 42 41 41 40 40 40 40 40 41 41 41 41 42 42 43 43 43 43 44 44 44 44 45 45 45 45 45 46 46 47 47 47 46 46 46 46 46 46 47 47 48 49 50 51 52 52 53 54 54 55 55 56 56 57 57 57 58 58 58 58 58 59 59 59 59
50 50 49 49 49 48 48 48 47 46 45 44 44 43 44 44 45 46 47 46 46 45 45 44 44 44 43 44 44 44 45 45 45 45 46 46 46 46 46 47 47 47 48 48 48 49 48 48 49 49 49 50 50 50 50 50 50 50 50 50 51 51 52 53 53 54 55 56 57 57 58 59 59 60 60 60 60 61 61 61 62 62 62 62 62
52 51 50 50 50 49 49 49 48 47 46 45 45 44 45 45 45 46 47 48 49 49 48 48 47 47 46 46 46 47 47 47 47 48 48 48 48 48 49 49 49 50 50 50 51 51 51 51 51 52 52 52 52 52 53 54 54 54 54 54 55 55 55 55 56 56 57 58 58 59 60 60 61 62 62 63 63 63 64 64 64 64 65 65 65
52 51 50 50 50 49 48 48 48 48 47 47 46 45 46 46 45 45 46 47 48 49 50 50 50 49 49 49 49 48 48 49 49 49 50 50 50 50 50 51 51 51 51 52 52 53 53 53 53 54 54 54 54 54 55 55 55 56 57 57 58 58 59 59 60 60 60 61 61 61 62 62 63 64 64 65 65 66 66 66 67 67 67 68 68
51 51 51 50 49 49 48 48 47 47 47 46 46 46 46 46 46 45 45 46 46 47 48 50 50 51 51 51 52 51 51 51 51 51 51 51 51 51 51 52 52 52 52 52 52 53 54 54 54 54 55 55 56 56 57 57 58 58 58 59 59 60 60 61 61 62 63 63 63 64 64 65 66 66 67 68 68 68 69 69 69 70 70 70 71
49 50 50 50 50 49 48 48 47 47 47 46 46 46 46 46 46 46 46 46 46 47 48 49 49 50 51 52 52 53 53 53 53 53 53 53 53 53 53 53 53 53 52 53 53 53 54 54 55 55 56 56 56 57 57 58 59 60 61 61 62 62 63 63 63 64 64 65 65 66 66 67 68 69 70 71 71 71 72 72 72 73 73 73 74
50 48 47 47 48 47 47 47 47 47 47 47 47 47 47 47 47 47 48 48 48 49 49 49 49 49 49 49 50 50 51 51 52 52 53 53 53 53 53 53 53 53 53 53 54 54 54 55 55 56 56 57 57 58 58 59 59 60 61 62 63 63 64 65 65 66 67 67 68 68 69 69 70 71 72 73 73 73 74 75 75 76 76 76 77
47 49 49 48 47 47 47 47 47 47 47 48 48 48 48 49 48 48 48 49 49 49 50 50 50 50 49 49 49 49 49 49 49 50 50 51 51 52 52 53 53 53 53 54 54 54 54 55 55 56 56 57 57 58 59 59 60 61 61 62 63 63 64 65 65 66 68 68 69 70 70 71 72 72 74 74 75 75 76 77 77 78 79 79 80
38 42 46 48 48 47 47 47 47 46 47 47 47 47 47 46 47 46 46 46 46 46 47 47 48 48 48 48 48 48 48 48 48 48 48 49 49 49 50 50 50 51 51 52 52 53 53 54 54 55 56 57 58 58 59 60 61 62 62 63 64 65 65 66 67 67 68 69 70 71 72 72 73 73 74 75 76 77 77 78 79 80 81 81 82
39 37 38 41 43 45 45 46 46 46 45 45 45 45 45 45 45 45 44 44 44 44 44 44 44 45 45 45 45 46 46 46 46 46 47 47 47 48 48 49 49 50 51 51 52 52 53 54 55 55 56 57 58 59 60 61 62 63 63 64 65 66 67 67 68 68 69 70 72 72 73 73 74 75 76 77 77 78 79 79 80 81 82 83 84
45 41 38 37 38 40 41 43 43 43 43 43 44 44 44 44 44 43 43 43 43 43 43 43 43 43 44 44 44 45 45 45 45 46 46 47 47 48 48 49 49 50 51 51 52 52 53 54 55 56 57 58 58 59 60 62 63 63 64 65 66 67 68 69 69 70 71 72 73 73 74 75 75 76 77 78 79 80 81 82 82 83 83 84 85
44 43 42 41 39 39 39 40 40 40 40 40 40 41 41 42 42 42 42 42 42 42 42 42 42 43 43 44 44 45 45 45 46 46 47 47 48 48 49 49 50 51 52 52 53 53 54 55 56 57 58 59 60 61 62 63 64 65 66 67 68 68 69 70 71 72 73 74 74 75 76 77 77 78 79 80 82 82 83 84 85 85 86 86 87
43 43 43 44 43 42 41 40 40 39 39 38 38 38 39 39 40 40 41 41 42 42 42 42 43 43 44 44 45 45 46 46 47 47 48 49 49 50 50 51 52 52 53 54 55 55 56 57 58 59 60 61 62 63 64 65 66 67 68 69 69 70 71 72 73 73 74 75 75 76 77 78 79 80 80 81 82 83 84 85 85 85 86 86 87
43 43 43 44 45 46 45 45 43 42 41 40 40 39 39 39 39 40 40 41 42 42 42 43 43 44 45 45 46 46 47 47 48 49 49 50 51 51 52 53 54 55 55 56 57 57 58 59 60 61 62 63 64 65 66 66 67 68 69 70 70 70 71 72 73 73 74 74 75 75 76 76 77 78 79 80 80 81 82 83 83 83 84 84 85
44 44 44 44 45 47 48 48 49 48 47 46 45 44 44 43 43 43 43 44 44 44 44 45 45 46 46 47 48 48 49 50 50 51 51 52 53 53 54 54 55 56 57 57 58 59 59 60 61 61 62 63 63 64 64 65 66 67 67 68 68 69 69 70 71 71 72 72 73 73 74 74 75 76 77 78 79 79 80 81 82 83 83 85 86
43 44 45 45 45 46 47 48 49 50 50 50 49 49 48 48 47 47 47 47 47 48 48 48 49 49 50 50 51 51 52 52 53 53 53 54 54 55 55 55 56 56 56 57 57 57 58 58 58 59 59 60 60 61 61 62 63 64 65 66 66 67 68 69 69 70 70 71 72 72 73 74 75 76 77 78 79 80 81 82 83 85 86 87 89
39 41 43 45 46 46 47 48 48 48 48 48 48 48 49 49 49 49 49 50 50 50 51 51 51 51 51 52 52 52 52 53 53 53 53 53 53 53 53 54 54 54 54 55 55 55 56 56 56 57 57 57 58 59 60 61 62 63 65 66 67 68 69 69 70 70 71 72 73 74 75 76 77 78 79 80 82 83 84 86 87 88 89 90 91
43 41 40 41 43 44 45 46 46 47 47 47 47 48 49 49 50 50 51 51 51 51 51 52 52 52 52 51 52 52 52 52 52 52 52 52 52 52 52 53 53 53 54 54 55 55 55 55 55 56 57 57 59 60 61 63 64 65 67 68 69 71 72 72 73 74 75 75 76 77 78 79 80 82 83 84 85 86 86 87 87 87 86 86 85
Wind_Direction
223 225 227 227 225 226 226 226 226 226 223 220 221 225 226 225 221 220 220 219 220 219 217 216 217 219 221 222 224 225 226 228 232 235 239 242 245 250 255 258 259 264 268 271 272 271 272 274 274 276 278 280 283 285 286 286 287 290 291 292 291 291 292 292 291 293 297 300 301 303 306 308 309 311 312 314 315 313 310 307 304 303 301 302 303
225 226 229 229 228 228 227 227 227 227 227 224 222 224 227 227 226 223 221 219 219 220 219 218 218 219 220 223 226 227 228 229 231 234 236 237 238 240 242 246 250 254 258 263 268 270 271 273 274 274 273 274 277 280 283 286 287 289 289 289 289 290 291 292 292 294 297 300 302 304 306 307 308 309 309 309 309 308 306 304 303 304 305 307 312
225 227 230 231 230 231 230 230 229 229 229 228 226 226 228 231 231 229 227 224 221 220 220 219 220 220 220 221 224 226 227 229 229 232 234 234 235 236 236 239 243 247 249 251 256 261 265 269 272 275 275 274 274 276 279 283 285 287 288 288 289 290 292 293 294 295 296 298 300 302 303 304 304 304 304 303 302 302 301 302 305 311 313 312 313
228 227 229 232 232 233 233 234 233 232 232 232 231 230 230 232 234 234 233 230 227 225 223 222 221 220 219 220 223 225 225 227 227 229 231 232 233 235 236 237 239 242 244 246 248 251 254 259 263 269 273 274 274 274 275 277 278 280 283 284 286 288 290 291 292 293 294 295 297 299 300 300 300 300 300 300 300 299 300 302 306 311 313 311 314
235 233 232 232 232 233 234 236 237 236 235 235 235 234 233 233 234 236 237 235 232 231 230 228 225 224 223 222 222 224 225 226 226 227 230 232 233 234 236 238 239 241 244 245 248 249 250 252 254 258 263 267 270 271 271 274 276 278 281 282 284 286 288 289 290 290 291 292 294 297 299 299 297 296 297 298 299 300 302 304 306 308 310 311 315
237 237 237 236 234 234 234 236 238 239 238 237 237 237 236 236 236 237 238 237 236 234 234 234 232 230 230 228 227 227 227 228 228 230 232 234 236 236 236 238 241 242 245 246 249 251 252 253 253 255 259 261 264 267 270 274 278 281 284 286 287 289 290 290 291 291 291 292 293 295 295 296 295 292 291 291 294 297 300 302 304 306 308 309 311
240 239 240 239 238 237 236 236 237 239 240 239 239 240 239 238 239 239 240 241 241 240 239 238 237 236 236 237 236 235 234 234 234 236 237 238 241 242 242 244 245 245 247 249 250 252 254 256 257 258 259 261 262 264 267 271 274 278 282 285 287 288 289 291 293 293 295 295 295 295 295 295 294 293 292 290 290 295 297 297 300 302 303 303 303
242 241 241 241 241 240 239 238 238 239 240 240 241 242 241 240 240 240 242 244 245 246 245 244 243 242 241 241 242 241 240 239 239 240 241 243 244 246 247 249 251 252 253 254 256 257 258 259 260 261 263 264 265 265 266 267 269 271 275 279 282 285 286 289 291 292 293 294 295 296 296 296 296 296 295 293 293 294 292 290 292 294 295 295 295
241 242 243 243 243 242 241 241 241 241 241 241 241 242 243 242 242 242 244 244 245 246 248 248 248 246 246 245 245 244 243 242 241 240 241 243 244 245 247 250 254 257 258 259 261 262 263 263 264 264 265 265 266 268 269 269 269 270 272 275 278 281 283 285 286 286 287 288 289 291 291 292 293 292 292 292 292 292 290 289 290 289 289 291 291
241 241 242 243 244 245 244 244 244 243 243 243 243 243 244 244 244 245 246 247 247 247 248 249 249 248 248 249 249 248 246 244 243 243 242 242 243 245 247 249 252 255 257 259 261 263 265 267 268 267 266 267 269 269 270 273 275 276 276 277 278 279 280 281 281 281 282 283 284 285 287 288 289 289 290 290 291 292 291 292 292 291 291 292 292
243 241 240 241 242 244 245 245 246 245 244 244 244 244 245 246 246 246 247 249 250 250 249 248 248 247 247 248 250 252 251 248 248 248 247 246 246 246 247 248 250 253 256 259 261 264 266 268 269 269 269 270 271 270 270 275 277 278 279 280 281 280 280 279 280 280 281 282 283 283 283 284 286 288 289 291 291 292 292 292 293 292 291 291 290
246 242 240 240 241 242 243 245 246 247 246 245 246 246 246 246 247 248 248 248 249 250 250 249 249 248 247 246 248 250 252 251 250 250 250 249 249 249 249 251 251 252 254 257 258 261 264 266 269 270 271 270 271 273 275 275 275 276 278 279 278 278 278 277 278 279 280 281 282 282 281 282 284 285 288 290 291 291 291 291 290 288 286 285 283
247 242 241 242 242 243 243 242 243 245 246 247 247 247 247 248 248 248 248 248 249 249 249 249 250 249 248 247 247 248 250 251 251 250 250 249 249 250 251 252 253 253 255 257 258 260 263 266 268 270 271 270 271 274 275 274 274 274 275 275 275 274 274 273 274 275 277 278 279 280 281 281 282 283 284 286 289 291 290 289 287 284 281 280 278
246 244 245 245 244 244 244 244 244 245 247 248 248 247 248 250 250 250 250 250 250 249 250 250 250 251 250 249 248 248 249 250 251 251 250 249 250 250 251 252 254 256 258 259 260 262 264 266 267 269 272 274 274 272 271 271 272 272 272 273 274 274 273 272 272 272 273 275 277 279 281 282 284 285 285 284 284 285 285 285 283 281 279 278 276
248 249 251 252 250 248 247 246 246 247 248 250 250 250 250 250 252 253 253 252 252 253 252 251 250 250 251 250 250 249 249 250 251 251 251 250 250 251 252 253 254 257 259 261 264 266 266 266 267 269 271 273 273 272 270 270 271 270 271 272 272 272 273 272 271 272 272 272 273 275 278 280 282 284 285 285 284 283 284 284 283 283 284 284 284
252 253 255 258 258 256 253 250 248 248 248 249 250 252 252 252 252 253 254 254 254 254 254 254 253 253 253 252 251 251 250 250 251 252 252 252 251 251 251 253 254 257 259 260 262 264 265 267 269 270 270 270 271 271 271 271 270 269 270 270 271 272 272 272 272 273 273 272 271 272 274 277 279 280 282 284 284 285 287 289 291 293 295 293 293
254 256 258 261 262 262 261 257 252 249 248 248 249 250 251 252 254 255 255 255 255 255 255 255 254 253 254 253 251 250 251 250 249 251 252 253 253 253 252 253 255 257 258 257 257 259 263 265 268 271 272 273 273 272 272 271 271 269 268 268 269 271 273 274 274 273 274 275 275 276 275 275 277 279 281 282 284 287 292 297 298 298 297 295 293
256 258 260 262 263 263 264 263 257 252 251 251 250 250 250 252 254 256 256 256 257 258 258 257 253 250 252 253 250 248 250 250 249 250 251 252 253 254 254 255 255 256 256 256 256 259 263 266 267 269 272 273 273 272 273 273 272 271 269 267 268 269 271 272 272 272 274 276 277 277 276 275 276 279 281 283 286 290 292 293 292 290 290 290 289
257 258 259 262 264 265 266 266 263 259 256 254 252 251 251 250 251 253 253 254 256 257 259 258 254 250 251 251 248 246 248 251 251 250 250 251 252 254 254 254 254 254 257 259 260 261 263 265 267 268 269 270 272 272 273 274 274 273 272 270 268 268 269 270 271 272 274 274 274 274 275 277 279 281 283 284 287 289 289 289 287 286 286 287 289
256 257 257 259 261 262 263 263 263 262 259 255 254 254 252 249 250 252 253 254 255 257 259 259 256 253 252 251 249 247 248 250 251 251 250 250 251 253 253 253 252 254 257 260 261 261 262 265 268 268 268 268 269 270 270 271 272 273 273 272 271 269 268 268 270 271 273 273 272 271 273 275 278 281 282 283 284 286 287 288 288 287 287 288 289
254 254 255 256 258 259 259 259 260 260 258 256 254 254 254 251 248 250 252 254 255 256 257 257 256 254 252 251 252 252 250 249 249 250 250 250 250 251 253 253 252 253 255 257 258 259 262 264 265 265 265 266 267 267 268 269 271 273 273 273 271 270 269 268 268 270 271 272 272 273 274 275 276 278 279 280 281 281 283 284 285 286 287 288 288
250 251 253 256 259 259 256 254 255 256 256 257 257 257 258 256 251 247 246 248 251 253 252 251 253 254 253 251 252 253 251 248 247 248 249 250 251 252 254 255 253 252 252 254 255 257 261 262 261 262 263 264 265 266 267 268 270 273 274 273 271 270 269 269 269 270 270 271 272 274 275 274 274 275 276 278 279 280 281 282 284 286 287 287 286
247 248 250 252 254 253 251 251 252 252 251 252 255 257 257 257 255 252 247 244 246 250 252 255 262 267 263 258 255 253 251 249 249 249 249 250 252 253 256 257 256 253 251 252 255 259 263 264 265 265 265 264 265 266 266 267 269 271 273 273 272 270 269 269 270 271 272 273 275 276 277 276 276 275 276 277 278 279 281 282 283 285 287 287 288
243 244 246 246 246 247 250 252 253 251 249 250 253 256 257 257 257 257 254 251 251 255 261 267 272 274 272 269 265 259 253 251 249 248 247 248 250 252 255 257 256 254 252 254 259 262 264 267 269 270 270 269 269 269 268 269 269 270 271 273 272 270 269 269 270 272 274 276 277 279 280 280 280 280 280 280 280 281 282 283 283 284 285 287 287
240 240 242 243 244 246 250 252 252 252 253 254 255 257 258 257 257 257 259 260 261 264 268 270 269 269 270 269 264 258 254 254 251 248 247 246 245 246 251 254 254 252 251 253 257 260 263 267 269 271 271 271 270 270 271 272 271 270 270 271 271 271 271 270 271 273 275 277 278 279 281 281 282 282 282 283 283 283 284 284 285 285 284 285 286
237 237 238 240 241 242 244 247 250 253 255 255 254 256 257 258 258 259 263 267 269 269 269 267 262 260 260 259 255 251 253 256 254 246 242 245 248 254 262 266 263 258 256 255 257 260 263 266 269 270 271 271 271 270 271 273 273 273 271 270 270 271 272 272 272 274 275 277 277 278 279 280 281 282 283 283 283 284 284 285 285 285 284 284 285
235 235 236 237 238 239 241 244 247 250 252 253 252 251 253 255 258 262 266 266 263 259 258 259 258 255 253 252 252 253 254 255 253 248 248 255 263 270 274 273 270 266 263 262 263 265 266 267 269 270 271 272 271 270 270 271 272 272 272 272 272 273 272 273 274 275 276 277 277 277 277 278 279 280 281 283 284 284 285 286 286 286 286 285 285
233 234 234 236 237 238 240 243 245 246 248 250 248 247 249 253 256 259 260 257 254 251 251 255 258 256 253 252 254 257 257 258 258 257 259 263 269 272 272 271 269 267 266 266 267 268 269 269 269 270 270 270 270 269 269 270 270 270 271 271 271 271 272 273 274 275 276 276 276 276 276 277 277 278 280 281 283 284 285 287 288 288 287 287 287
232 233 234 235 236 238 239 241 244 245 246 248 248 246 248 251 252 252 253 253 252 252 253 255 258 258 256 256 256 257 258 259 259 259 261 264 267 270 271 271 269 269 269 269 269 270 270 270 269 269 270 270 271 271 271 272 273 274 274 274 273 272 273 273 274 274 275 275 276 276 277 277 278 278 279 281 282 283 284 285 287 287 287 287 287
233 234 235 236 237 238 238 239 242 243 245 247 248 248 249 250 250 250 253 255 256 257 257 256 256 257 258 258 257 256 257 258 259 261 263 265 266 268 269 269 268 268 268 268 268 269 269 269 269 269 269 270 270 271 272 273 274 274 275 275 275 275 275 275 275 275 275 276 276 277 278 279 280 280 280 281 281 282 283 283 284 285 285 285 285
232 234 236 237 238 239 240 241 242 243 245 246 248 249 250 251 250 251 253 256 258 258 257 256 255 256 257 259 259 259 259 259 260 262 262 263 264 264 265 265 266 267 268 269 270 270 271 270 270 270 270 270 270 270 270 271 272 273 273 274 274 274 275 275 276 276 277 277 277 278 279 279 280 280 281 281 282 282 282 283 283 283 283 283 283
232 234 235 237 239 241 243 244 245 246 247 248 249 250 251 252 252 252 253 255 256 257 256 256 255 255 256 258 259 260 260 260 261 262 262 261 261 262 263 264 265 266 268 269 270 272 272 273 272 272 271 271 271 271 271 271 271 272 273 274 274 274 275 275 276 277 277 278 279 279 280 280 280 280 280 281 281 281 281 282 282 282 282 282 282
234 235 237 239 241 243 244 246 247 248 249 250 251 252 253 254 255 255 254 255 256 257 257 256 256 256 256 257 258 259 260 261 261 262 262 262 263 263 264 265 266 267 268 269 270 271 272 273 274 274 273 272 271 270 270 270 271 271 272 273 274 275 276 277 278 278 278 278 279 279 279 280 280 280 280 280 280 280 281 281 281 281 281 281 281
236 238 239 240 242 244 245 246 247 248 249 250 251 252 252 254 254 255 256 256 257 257 258 257 257 257 258 258 258 259 260 260 261 261 262 263 264 265 266 266 267 268 268 269 269 270 270 271 272 273 274 274 273 273 272 271 271 271 271 272 272 273 274 275 276 277 277 278 278 278 279 279 279 279 279 280 280 280 280 280 280 281 281 281 281
238 240 242 243 244 245 246 247 248 249 250 250 251 252 252 253 253 254 255 255 256 257 258 258 258 258 258 259 259 260 260 261 262 262 263 264 265 266 267 268 269 270 271 271 271 271 271 271 270 270 271 271 272 273 273 273 273 273 273 272 272 272 273 273 274 274 275 276 276 277 278 278 278 279 279 279 279 279 279 279 279 279 280 280 280
241 242 244 245 246 247 247 248 248 249 249 249 250 250 251 252 253 253 253 254 255 256 257 258 259 260 260 261 261 262 263 264 264 265 266 266 267 268 268 269 270 271 272 273 273 273 273 273 272 272 272 271 271 271 272 273 273 274 275 276 276 276 276 277 277 277 277 277 277 277 277 278 278 278 279 279 279 279 279 279 279 279 279 279 279
241 242 244 245 246 247 247 248 248 248 248 249 249 249 250 251 252 252 252 253 253 254 255 257 258 260 261 262 263 264 265 265 266 267 268 269 269 270 270 271 271 271 272 272 273 273 274 274 274 274 274 275 275 275 274 274 274 274 275 275 276 277 278 278 279 279 280 280 280 279 280 280 280 280 280 280 280 280 280 280 280 280 280 280 280
240 242 244 245 246 246 247 248 248 248 249 249 249 249 249 250 250 251 252 252 253 253 254 256 257 258 260 261 262 263 264 266 267 268 269 269 270 271 271 272 272 272 273 273 273 274 274 275 275 275 275 275 276 276 277 277 277 277 278 278 278 278 278 278 279 279 279 279 279 279 280 280 280 280 280 280 280 280 280 280 280 280 281 281 281
239 241 242 243 244 245 246 246 247 248 249 249 249 250 250 250 251 251 252 253 254 255 256 257 258 259 260 261 262 263 264 265 266 267 268 269 270 271 271 272 272 272 272 273 273 274 274 275 275 276 276 276 276 276 277 277 277 278 278 279 279 280 280 280 280 280 280 280 280 280 280 280 280 280 280 280 280 280 280 280 280 280 280 280 280
239 239 239 240 241 242 243 244 245 247 248 249 250 251 252 252 253 254 255 256 257 257 258 259 260 261 261 262 263 263 263 264 265 265 267 268 268 269 270 271 271 272 272 272 272 273 273 274 275 275 276 276 277 277 278 278 278 279 279 279 279 279 279 280 280 280 281 281 281 281 281 281 281 281 280 280 280 280 280 279 279 280 280 280 279
241 240 239 239 240 242 243 245 246 248 249 250 250 251 252 253 254 255 256 257 258 259 259 259 260 261 262 263 264 264 265 265 265 266 266 267 268 268 269 270 270 271 272 272 273 273 274 274 275 275 276 276 277 277 278 278 278 279 279 279 279 279 279 279 280 280 280 280 280 280 280 280 280 280 281 280 280 280 280 279 279 279 279 279 279
248 245 242 241 242 243 245 246 247 248 249 250 250 250 251 252 253 254 255 257 258 258 259 260 260 261 261 262 263 264 265 266 266 267 267 268 269 269 270 271 272 272 273 274 274 275 275 276 276 276 277 277 277 278 278 278 279 279 280 280 280 280 281 281 281 282 282 281 281 281 281 281 281 281 281 281 280 280 280 280 280 279 279 279 279
256 253 249 245 244 245 246 247 248 249 249 249 250 250 251 252 253 254 255 256 257 258 259 260 261 262 262 263 264 265 266 266 267 268 269 270 270 271 272 273 274 275 275 276 276 277 278 278 278 279 279 280 280 280 280 281 281 281 281 282 282 282 282 282 282 282 282 282 282 282 282 282 282 282 282 281 281 281 280 280 280 280 279 279 279
257 256 255 252 250 249 249 249 250 250 250 250 250 250 251 252 253 255 256 257 258 259 260 261 262 263 264 265 265 266 267 268 269 270 271 272 272 273 274 275 276 276 277 278 279 279 280 280 281 281 282 282 282 283 283 283 283 283 282 282 282 283 283 283 283 282 282 282 283 283 283 283 283 283 282 282 282 282 282 281 281 280 280 280 280
255 253 253 253 252 251 250 250 250 250 250 250 250 250 250 251 252 254 255 256 257 258 259 261 262 263 265 266 267 268 268 269 270 271 272 273 273 274 275 276 277 278 278 279 280 280 280 281 281 282 282 282 283 283 283 284 284 284 284 284 284 284 284 284 284 284 284 284 284 284 284 284 283 283 283 283 283 283 282 282 282 282 281 281 281
252 249 248 249 249 249 249 248 248 248 248 249 249 250 251 252 253 254 255 256 257 258 260 261 262 264 265 266 267 268 269 270 271 272 273 273 274 275 276 276 277 277 278 279 279 280 280 281 281 282 282 283 283 284 284 285 285 285 285 285 285 286 285 285 285 285 285 285 285 284 284 284 284 284 283 283 283 283 283 282 282 282 282 282 282
249 247 246 245 246 246 247 247 246 246 247 248 249 251 252 254 255 256 257 258 259 260 261 262 263 264 265 266 267 268 269 269 270 271 272 273 274 274 275 276 276 277 277 278 279 280 280 281 281 282 283 283 284 284 284 285 285 285 285 285 285 285 285 285 285 285 285 285 285 285 284 284 284 284 284 283 283 283 283 283 282 282 282 282 282
247 246 245 244 244 244 245 246 247 247 248 249 250 252 253 254 256 257 258 259 260 261 262 263 264 264 265 266 267 267 268 269 270 270 271 272 273 274 275 276 276 277 278 279 279 280 281 281 282 282 283 283 283 284 284 284 285 285 285 286 286 286 285 285 285 285 285 285 285 285 284 284 284 284 284 283 283 283 283 283 283 283 282 282 282
248 247 245 245 244 244 245 246 248 249 250 251 252 253 253 254 255 256 257 258 259 260 261 262 263 264 265 265 266 267 268 269 270 271 272 273 274 275 276 277 278 279 280 280 281 281 282 282 283 283 283 284 284 285 285 286 287 287 287 287 287 286 286 286 286 285 285 285 284 284 284 284 284 284 284 284 284 284 284 284 283 283 283 283 282
249 247 246 245 245 246 246 247 248 250 251 252 253 254 254 254 255 255 256 257 258 259 261 262 263 264 265 265 266 267 268 269 271 272 273 274 275 276 277 278 279 279 280 281 282 282 283 283 284 284 285 286 286 287 288 289 289 289 289 289 289 289 288 287 287 286 286 285 285 285 285 285 285 286 286 286 286 285 285 285 284 284 284 284 283
248 247 246 245 245 246 247 248 248 250 251 252 254 255 256 257 257 257 257 258 259 259 261 262 263 264 265 266 267 268 269 270 271 273 274 275 276 277 278 278 279 280 281 282 282 283 283 283 284 285 286 287 288 289 290 291 291 291 291 291 290 290 289 289 288 287 287 286 286 286 287 287 287 287 287 287 286 286 286 285 285 285 285 285 285
Height
5938 5939 5940 5942 5943 5944 5945 5946 5948 5949 5950 5950 5951 5952 5952 5953 5953 5954 5955 5955 5956 5957 5957 5958 5959 5960 5961 5961 5962 5963 5963 5964 5965 5966 5966 5967 5968 5968 5969 5969 5969 5970 5970 5970 5970 5971 5971 5971 5971 5971 5971 5971 5971 5971 5971 5971 5971 5971 5971 5970 5970 5970 5970 5969 5969 5968 5968 5968 5967 5967 5966 5965 5964 5963 5962 5961 5960 5960 5959 5958 5957 5957 5955 5955 5954
5937 5938 5939 5940 5942 5943 5944 5945 5946 5948 5949 5950 5951 5951 5952 5953 5953 5954 5954 5955 5955 5956 5957 5957 5958 5959 5959 5960 5961 5962 5962 5963 5964 5964 5965 5966 5966 5967 5967 5968 5968 5968 5969 5969 5969 5969 5970 5970 5970 5970 5970 5970 5970 5970 5970 5970 5970 5969 5969 5969 5968 5968 5968 5968 5967 5967 5966 5966 5966 5965 5965 5964 5963 5962 5962 5961 5960 5959 5958 5957 5956 5956 5955 5954 5953
5936 5937 5938 5939 5941 5942 5943 5944 5945 5946 5947 5949 5950 5951 5951 5952 5952 5953 5954 5954 5955 5955 5956 5957 5957 5958 5958 5959 5960 5960 5961 5962 5962 5963 5963 5964 5965 5965 5966 5966 5966 5967 5967 5967 5968 5968 5968 5968 5969 5969 5969 5970 5970 5969 5969 5969 5968 5968 5968 5967 5967 5966 5966 5966 5966 5965 5965 5964 5964 5963 5963 5963 5962 5961 5961 5960 5959 5958 5957 5956 5956 5955 5955 5954 5952
5935 5936 5937 5938 5939 5941 5941 5942 5943 5945 5946 5947 5949 5950 5951 5951 5952 5952 5953 5953 5954 5955 5955 5956 5956 5956 5957 5958 5958 5959 5960 5960 5961 5961 5962 5963 5964 5964 5964 5965 5965 5965 5966 5966 5966 5966 5967 5967 5967 5968 5968 5968 5968 5968 5968 5967 5967 5966 5966 5966 5965 5965 5965 5965 5964 5964 5963 5963 5962 5962 5962 5961 5961 5960 5960 5959 5958 5957 5957 5956 5955 5954 5954 5953 5952
5933 5935 5936 5937 5938 5939 5940 5941 5942 5943 5944 5946 5947 5948 5950 5951 5951 5951 5952 5952 5953 5954 5954 5954 5955 5955 5956 5956 5957 5957 5958 5959 5959 5960 5961 5962 5962 5962 5963 5963 5964 5964 5964 5965 5965 5965 5965 5966 5966 5966 5966 5966 5967 5967 5966 5966 5966 5965 5965 5965 5964 5964 5964 5964 5963 5963 5962 5962 5961 5961 5961 5960 5960 5959 5959 5958 5957 5957 5956 5955 5954 5953 5952 5952 5951
5931 5933 5934 5935 5936 5937 5938 5939 5940 5941 5942 5944 5945 5946 5948 5949 5949 5950 5950 5951 5952 5952 5953 5953 5954 5954 5955 5955 5956 5956 5957 5958 5958 5959 5960 5961 5961 5961 5961 5962 5962 5963 5963 5963 5964 5964 5964 5964 5965 5965 5965 5965 5965 5965 5965 5965 5965 5965 5964 5964 5964 5964 5963 5963 5963 5962 5962 5961 5961 5960 5960 5959 5959 5958 5958 5957 5957 5956 5955 5955 5954 5953 5952 5951 5950
5928 5930 5932 5933 5934 5935 5936 5937 5938 5939 5940 5941 5943 5944 5945 5947 5947 5948 5948 5949 5950 5950 5951 5952 5952 5953 5954 5955 5955 5956 5956 5957 5958 5958 5959 5959 5960 5960 5960 5961 5961 5961 5961 5962 5962 5962 5962 5963 5963 5963 5963 5964 5964 5964 5964 5964 5964 5964 5963 5963 5963 5963 5962 5962 5962 5962 5961 5961 5960 5960 5959 5959 5958 5958 5957 5957 5956 5955 5955 5954 5953 5952 5951 5951 5950
5925 5927 5929 5930 5932 5933 5934 5935 5936 5937 5938 5939 5941 5942 5943 5944 5945 5945 5946 5947 5948 5948 5949 5950 5951 5952 5953 5954 5955 5955 5955 5956 5956 5957 5957 5958 5958 5958 5959 5959 5959 5960 5960 5960 5960 5960 5961 5961 5961 5962 5962 5962 5962 5962 5962 5962 5962 5962 5962 5961 5961 5961 5961 5961 5961 5960 5960 5960 5959 5959 5958 5958 5957 5957 5956 5956 5955 5954 5953 5952 5952 5951 5950 5949 5948
5923 5924 5926 5927 5929 5930 5931 5933 5934 5934 5935 5937 5938 5939 5940 5941 5942 5942 5943 5944 5945 5946 5947 5948 5950 5951 5952 5952 5953 5953 5954 5954 5954 5954 5955 5956 5956 5956 5957 5957 5958 5958 5959 5959 5959 5959 5959 5959 5960 5960 5961 5960 5960 5961 5960 5960 5960 5960 5959 5959 5959 5959 5959 5959 5958 5958 5958 5958 5957 5957 5956 5956 5955 5955 5954 5954 5953 5952 5951 5950 5950 5949 5948 5947 5946
5920 5921 5923 5924 5926 5927 5929 5930 5931 5932 5933 5934 5935 5936 5937 5938 5939 5940 5941 5942 5943 5944 5945 5946 5947 5949 5949 5950 5950 5951 5951 5952 5951 5952 5953 5953 5954 5954 5955 5955 5955 5956 5957 5957 5957 5957 5957 5957 5958 5958 5958 5958 5958 5958 5958 5958 5958 5958 5958 5957 5957 5957 5957 5956 5956 5956 5955 5955 5955 5955 5954 5954 5953 5952 5952 5951 5951 5950 5949 5948 5948 5947 5946 5945 5943
5917 5918 5919 5921 5922 5924 5926 5927 5928 5929 5930 5931 5932 5933 5934 5935 5936 5937 5938 5939 5940 5941 5943 5943 5944 5945 5946 5947 5947 5948 5949 5949 5949 5950 5950 5951 5951 5952 5953 5953 5953 5954 5955 5955 5955 5955 5955 5955 5955 5955 5956 5956 5956 5956 5956 5956 5956 5956 5956 5956 5955 5955 5954 5954 5953 5953 5953 5952 5952 5952 5951 5951 5951 5950 5949 5949 5949 5948 5947 5946 5946 5945 5944 5943 5941
5913 5914 5916 5917 5919 5920 5922 5923 5924 5925 5926 5927 5929 5930 5931 5933 5934 5934 5935 5936 5937 5938 5939 5939 5940 5941 5942 5943 5944 5945 5946 5947 5947 5947 5948 5949 5949 5950 5950 5951 5951 5951 5952 5952 5952 5952 5953 5953 5953 5953 5953 5954 5954 5954 5954 5954 5954 5954 5953 5953 5953 5953 5952 5952 5951 5951 5950 5950 5949 5949 5948 5948 5948 5947 5947 5947 5946 5946 5945 5945 5944 5943 5942 5941 5940
5910 5912 5913 5914 5915 5916 5918 5919 5920 5921 5922 5924 5925 5927 5928 5929 5930 5931 5931 5932 5933 5934 5934 5935 5936 5936 5937 5938 5939 5941 5943 5943 5943 5945 5946 5946 5947 5947 5947 5948 5948 5949 5949 5949 5950 5950 5950 5951 5951 5951 5951 5951 5951 5951 5951 5951 5951 5951 5951 5950 5951 5951 5950 5949 5949 5948 5948 5948 5947 5947 5946 5946 5946 5945 5945 5945 5944 5944 5943 5942 5941 5941 5939 5938 5937
5908 5909 5910 5911 5912 5912 5913 5915 5916 5917 5919 5921 5922 5924 5925 5926 5926 5927 5928 5929 5930 5930 5931 5932 5932 5933 5934 5934 5935 5937 5939 5938 5940 5941 5942 5942 5943 5944 5944 5945 5945 5946 5946 5947 5947 5948 5948 5948 5948 5948 5948 5948 5949 5949 5948 5948 5948 5948 5948 5948 5948 5948 5948 5947 5947 5946 5946 5946 5945 5945 5944 5944 5944 5943 5943 5943 5943 5942 5941 5940 5939 5938 5937 5936 5935
5905 5906 5906 5907 5908 5909 5910 5911 5913 5914 5916 5917 5919 5920 5922 5922 5923 5923 5925 5926 5926 5927 5927 5928 5928 5929 5930 5930 5932 5934 5934 5934 5935 5937 5938 5939 5940 5940 5940 5941 5942 5943 5943 5944 5945 5945 5946 5946 5945 5945 5945 5945 5945 5945 5945 5945 5946 5946 5946 5946 5945 5945 5945 5945 5944 5944 5944 5943 5943 5942 5942 5941 5941 5941 5940 5940 5939 5939 5939 5938 5936 5936 5936 5936 5934
5902 5902 5903 5903 5904 5905 5906 5907 5909 5910 5912 5914 5915 5916 5917 5918 5918 5919 5920 5921 5922 5923 5923 5923 5925 5926 5926 5927 5930 5932 5930 5930 5931 5932 5933 5935 5936 5936 5937 5937 5938 5939 5939 5941 5942 5942 5942 5942 5942 5942 5942 5942 5942 5942 5942 5943 5943 5943 5943 5943 5942 5942 5941 5941 5941 5942 5941 5941 5940 5940 5939 5938 5938 5937 5937 5936 5936 5936 5937 5937 5936 5936 5937 5936 5934
5898 5899 5899 5899 5900 5901 5902 5903 5905 5906 5907 5909 5911 5911 5912 5913 5914 5915 5916 5917 5917 5918 5918 5918 5921 5923 5922 5922 5926 5927 5925 5925 5927 5928 5929 5930 5931 5932 5933 5934 5935 5935 5935 5936 5937 5937 5936 5937 5937 5938 5939 5939 5939 5939 5939 5940 5940 5940 5940 5939 5939 5939 5938 5938 5938 5938 5938 5938 5938 5938 5937 5936 5935 5934 5934 5933 5933 5933 5935 5937 5935 5935 5935 5934 5933
5894 5896 5896 5896 5896 5897 5898 5900 5902 5903 5904 5905 5906 5907 5908 5909 5910 5911 5912 5912 5912 5912 5912 5912 5914 5917 5917 5917 5920 5922 5920 5920 5922 5924 5925 5926 5926 5928 5929 5930 5931 5931 5931 5932 5933 5933 5933 5933 5933 5934 5935 5936 5936 5935 5936 5936 5937 5937 5937 5937 5936 5935 5935 5935 5935 5935 5935 5935 5935 5935 5934 5933 5932 5932 5931 5930 5930 5931 5932 5933 5931 5930 5930 5929 5929
5891 5892 5893 5893 5893 5894 5895 5897 5898 5899 5900 5901 5901 5902 5904 5905 5906 5906 5907 5908 5908 5908 5908 5908 5909 5911 5911 5911 5914 5916 5915 5916 5918 5919 5920 5921 5922 5923 5925 5926 5926 5926 5928 5929 5930 5930 5930 5929 5930 5931 5931 5931 5931 5931 5932 5932 5932 5932 5933 5933 5933 5932 5931 5931 5931 5931 5932 5932 5932 5931 5931 5929 5929 5929 5929 5928 5928 5927 5926 5926 5925 5925 5926 5926 5926
5886 5888 5889 5889 5890 5891 5892 5893 5894 5895 5896 5897 5897 5898 5899 5900 5901 5902 5903 5904 5904 5904 5905 5905 5905 5906 5906 5906 5908 5909 5910 5911 5913 5914 5916 5917 5918 5919 5920 5922 5922 5923 5925 5927 5927 5926 5925 5926 5927 5926 5925 5925 5926 5927 5928 5928 5928 5928 5928 5929 5929 5929 5928 5927 5927 5927 5928 5928 5928 5928 5927 5927 5927 5927 5925 5925 5924 5923 5922 5921 5920 5920 5922 5924 5923
5882 5883 5884 5884 5885 5887 5888 5889 5890 5891 5892 5893 5894 5894 5895 5896 5897 5898 5899 5900 5901 5901 5901 5902 5901 5901 5901 5902 5903 5904 5905 5907 5909 5910 5911 5912 5913 5914 5915 5917 5919 5921 5922 5923 5923 5922 5922 5923 5923 5921 5920 5921 5922 5922 5923 5924 5924 5924 5924 5924 5925 5925 5925 5924 5924 5923 5924 5924 5924 5923 5924 5924 5924 5923 5922 5921 5921 5920 5918 5917 5916 5916 5918 5920 5920
5877 5878 5879 5880 5881 5882 5884 5885 5886 5887 5889 5890 5890 5891 5891 5892 5893 5894 5896 5896 5897 5898 5898 5898 5897 5897 5897 5897 5898 5899 5900 5902 5904 5905 5906 5908 5909 5910 5911 5912 5914 5917 5918 5918 5918 5918 5918 5918 5918 5916 5916 5917 5917 5918 5919 5919 5920 5920 5920 5920 5920 5920 5920 5920 5920 5920 5919 5919 5919 5919 5919 5919 5919 5919 5918 5917 5917 5916 5915 5913 5912 5911 5912 5914 5916
5873 5874 5876 5877 5877 5878 5879 5880 5882 5883 5885 5886 5886 5886 5887 5888 5889 5890 5892 5893 5893 5893 5893 5894 5894 5894 5894 5894 5893 5894 5896 5897 5899 5901 5902 5904 5905 5906 5907 5908 5910 5911 5912 5912 5912 5912 5912 5912 5912 5912 5912 5913 5913 5913 5914 5915 5915 5915 5915 5916 5916 5916 5915 5915 5915 5915 5915 5914 5914 5914 5913 5914 5914 5914 5914 5913 5912 5912 5911 5909 5908 5907 5906 5907 5909
5868 5870 5871 5872 5873 5874 5875 5876 5878 5879 5880 5881 5882 5882 5883 5884 5885 5886 5888 5889 5889 5889 5890 5891 5891 5891 5892 5891 5891 5892 5893 5893 5894 5896 5898 5899 5901 5902 5903 5904 5905 5906 5907 5907 5907 5907 5907 5907 5908 5908 5908 5909 5909 5909 5910 5910 5910 5910 5910 5911 5911 5911 5911 5910 5911 5911 5910 5910 5909 5909 5909 5909 5909 5909 5909 5908 5908 5907 5907 5905 5904 5904 5902 5902 5902
5864 5865 5866 5867 5869 5870 5871 5871 5873 5874 5875 5877 5878 5879 5879 5880 5881 5882 5884 5885 5886 5886 5887 5887 5888 5888 5888 5888 5889 5890 5890 5890 5891 5892 5894 5895 5896 5898 5899 5900 5901 5902 5903 5903 5903 5903 5903 5903 5904 5904 5904 5905 5905 5905 5905 5905 5905 5905 5905 5906 5907 5907 5906 5906 5906 5906 5906 5905 5905 5905 5904 5904 5904 5904 5904 5903 5902 5902 5902 5902 5901 5900 5899 5899 5898
5859 5860 5861 5863 5865 5866 5866 5867 5869 5870 5871 5873 5874 5876 5876 5877 5877 5878 5880 5881 5882 5882 5883 5884 5884 5885 5885 5886 5886 5887 5887 5888 5889 5890 5891 5891 5893 5894 5896 5897 5897 5898 5899 5899 5899 5900 5900 5900 5900 5900 5901 5901 5901 5901 5901 5900 5900 5900 5900 5901 5902 5902 5901 5901 5901 5901 5901 5901 5900 5900 5900 5899 5899 5898 5898 5898 5897 5897 5897 5897 5897 5895 5895 5895 5895
5854 5856 5857 5859 5861 5861 5862 5863 5865 5867 5868 5869 5871 5872 5873 5873 5874 5875 5876 5877 5877 5878 5879 5880 5880 5881 5882 5882 5883 5884 5885 5886 5887 5888 5888 5889 5890 5891 5892 5893 5894 5894 5895 5895 5896 5896 5896 5896 5897 5897 5897 5897 5897 5897 5897 5897 5896 5896 5896 5896 5897 5897 5897 5897 5897 5896 5896 5896 5896 5895 5895 5894 5894 5893 5893 5892 5891 5891 5891 5891 5891 5891 5890 5890 5890
5849 5851 5852 5854 5855 5856 5858 5859 5861 5862 5864 5865 5867 5869 5869 5870 5870 5872 5872 5873 5874 5874 5875 5876 5877 5878 5878 5879 5879 5880 5882 5883 5884 5885 5886 5886 5887 5888 5889 5890 5890 5891 5891 5892 5892 5892 5892 5893 5893 5893 5893 5893 5893 5893 5893 5893 5892 5892 5891 5891 5892 5892 5892 5892 5892 5891 5891 5891 5891 5891 5890 5890 5889 5888 5888 5887 5886 5885 5885 5885 5885 5885 5885 5884 5885
5844 5845 5847 5849 5850 5851 5853 5855 5856 5858 5860 5861 5863 5864 5865 5866 5867 5868 5868 5869 5870 5871 5872 5873 5874 5874 5875 5876 5877 5877 5878 5879 5880 5881 5882 5883 5883 5884 5885 5886 5886 5887 5887 5888 5888 5888 5888 5889 5889 5889 5889 5889 5889 5889 5889 5888 5887 5887 5886 5886 5886 5887 5887 5887 5887 5886 5887 5886 5886 5886 5885 5885 5884 5883 5883 5882 5881 5880 5879 5879 5879 5879 5878 5878 5878
5839 5841 5842 5844 5845 5847 5849 5851 5852 5854 5855 5857 5858 5859 5860 5862 5863 5864 5864 5865 5866 5867 5868 5870 5871 5871 5872 5873 5874 5875 5875 5876 5877 5878 5878 5879 5879 5880 5881 5882 5882 5883 5883 5884 5884 5884 5884 5884 5885 5885 5885 5885 5884 5884 5884 5884 5883 5883 5882 5882 5881 5881 5881 5881 5881 5881 5881 5881 5881 5880 5880 5879 5878 5878 5877 5877 5876 5875 5874 5874 5873 5873 5873 5872 5872
5834 5836 5838 5839 5841 5843 5844 5846 5848 5850 5851 5852 5854 5855 5856 5857 5858 5859 5860 5861 5861 5863 5864 5865 5866 5867 5868 5868 5870 5871 5872 5873 5873 5874 5874 5875 5875 5876 5877 5877 5878 5878 5879 5879 5879 5879 5879 5880 5880 5880 5880 5880 5880 5879 5879 5879 5878 5878 5878 5878 5877 5877 5876 5876 5876 5875 5875 5875 5875 5875 5874 5873 5873 5872 5872 5871 5871 5870 5869 5868 5868 5867 5867 5866 5866
5829 5831 5833 5835 5836 5838 5840 5842 5844 5845 5847 5848 5850 5851 5852 5853 5854 5855 5856 5856 5857 5858 5859 5861 5862 5863 5864 5864 5865 5866 5867 5868 5868 5869 5869 5870 5871 5871 5872 5872 5873 5873 5873 5874 5874 5874 5874 5874 5874 5875 5875 5875 5874 5874 5874 5874 5873 5873 5873 5872 5872 5872 5871 5871 5870 5870 5869 5869 5868 5868 5868 5867 5867 5867 5866 5865 5865 5864 5863 5862 5862 5861 5861 5860 5859
5824 5826 5828 5829 5831 5833 5835 5837 5839 5840 5841 5843 5845 5846 5847 5848 5849 5850 5851 5852 5853 5854 5855 5856 5857 5858 5859 5860 5861 5861 5862 5862 5863 5864 5864 5865 5865 5866 5866 5867 5867 5867 5868 5868 5868 5868 5868 5868 5868 5868 5868 5869 5869 5869 5868 5868 5867 5867 5867 5866 5866 5866 5865 5865 5864 5864 5863 5863 5862 5862 5862 5861 5861 5860 5859 5859 5858 5858 5857 5856 5856 5855 5854 5853 5853
5818 5820 5821 5823 5825 5827 5828 5830 5832 5834 5835 5837 5839 5840 5841 5843 5844 5845 5846 5847 5848 5849 5850 5851 5852 5853 5854 5855 5855 5856 5857 5857 5858 5858 5859 5859 5860 5861 5861 5861 5861 5862 5862 5862 5862 5862 5863 5863 5862 5862 5862 5862 5862 5862 5862 5862 5862 5861 5861 5861 5860 5860 5859 5859 5858 5858 5857 5856 5856 5856 5855 5855 5854 5853 5853 5852 5851 5850 5850 5849 5848 5847 5847 5846 5845
5811 5813 5815 5817 5819 5821 5822 5824 5826 5827 5829 5831 5832 5833 5835 5836 5837 5838 5840 5841 5842 5843 5844 5845 5846 5847 5848 5849 5850 5851 5851 5852 5852 5853 5853 5854 5854 5855 5855 5855 5855 5856 5856 5856 5856 5856 5856 5857 5856 5856 5856 5856 5856 5855 5855 5855 5855 5855 5854 5854 5854 5854 5854 5853 5852 5852 5851 5850 5850 5849 5848 5847 5847 5846 5845 5845 5844 5843 5842 5841 5841 5840 5839 5838 5838
5804 5806 5808 5810 5812 5814 5816 5817 5819 5821 5822 5823 5825 5826 5828 5829 5830 5832 5833 5834 5836 5837 5837 5838 5839 5841 5842 5842 5844 5844 5845 5845 5846 5846 5846 5847 5848 5848 5849 5849 5849 5850 5850 5849 5849 5849 5849 5850 5850 5850 5850 5849 5849 5849 5849 5848 5848 5847 5847 5846 5846 5846 5846 5845 5845 5844 5844 5843 5842 5842 5841 5840 5839 5838 5837 5836 5835 5835 5834 5833 5833 5832 5831 5830 5829
5798 5800 5802 5803 5805 5808 5809 5811 5812 5814 5815 5817 5819 5820 5821 5823 5824 5825 5826 5828 5829 5830 5831 5832 5833 5834 5835 5836 5837 5838 5838 5839 5839 5840 5840 5841 5841 5842 5842 5843 5843 5843 5844 5843 5843 5842 5842 5842 5842 5842 5842 5842 5842 5842 5841 5841 5841 5841 5840 5840 5839 5838 5838 5837 5837 5836 5835 5834 5834 5833 5833 5831 5830 5830 5829 5828 5827 5826 5825 5824 5824 5823 5822 5821 5820
5791 5793 5795 5797 5799 5801 5802 5804 5806 5807 5809 5811 5813 5814 5815 5816 5818 5819 5820 5822 5822 5823 5824 5825 5827 5828 5829 5830 5831 5831 5832 5832 5833 5833 5834 5834 5835 5835 5835 5835 5836 5836 5836 5836 5836 5835 5835 5835 5835 5835 5834 5834 5834 5834 5833 5833 5833 5832 5832 5831 5831 5831 5830 5829 5829 5828 5827 5826 5826 5825 5824 5823 5822 5821 5820 5819 5818 5817 5816 5815 5814 5813 5812 5811 5810
5784 5786 5788 5790 5792 5794 5796 5797 5799 5801 5803 5805 5806 5807 5809 5810 5811 5813 5814 5815 5816 5817 5818 5819 5820 5822 5823 5823 5824 5825 5826 5826 5827 5827 5827 5828 5828 5828 5828 5828 5829 5829 5829 5829 5829 5829 5828 5828 5828 5828 5827 5827 5826 5826 5826 5825 5825 5824 5823 5823 5822 5822 5821 5820 5820 5819 5818 5817 5817 5817 5816 5814 5813 5811 5810 5809 5808 5808 5807 5805 5804 5803 5803 5802 5800
5777 5779 5781 5783 5786 5788 5789 5791 5793 5795 5796 5798 5800 5801 5803 5804 5805 5807 5808 5809 5810 5811 5812 5813 5814 5815 5816 5817 5817 5819 5819 5820 5820 5821 5821 5821 5822 5822 5822 5822 5822 5822 5822 5822 5822 5822 5822 5822 5822 5821 5820 5819 5819 5818 5818 5817 5817 5816 5815 5815 5814 5814 5813 5812 5812 5811 5809 5809 5808 5807 5806 5805 5804 5802 5800 5799 5799 5798 5796 5795 5794 5793 5792 5791 5790
5771 5773 5775 5777 5779 5781 5783 5785 5787 5789 5790 5792 5793 5795 5796 5798 5799 5800 5801 5802 5803 5804 5805 5806 5807 5809 5810 5810 5811 5812 5812 5813 5813 5814 5814 5814 5815 5815 5815 5815 5815 5815 5815 5815 5815 5815 5815 5815 5814 5813 5813 5812 5812 5811 5811 5810 5809 5808 5807 5807 5806 5806 5805 5805 5804 5803 5802 5800 5798 5797 5797 5796 5795 5793 5790 5789 5788 5787 5786 5785 5784 5782 5781 5780 5778
5765 5767 5768 5770 5772 5774 5776 5778 5780 5782 5784 5785 5787 5788 5790 5791 5792 5793 5794 5796 5797 5798 5799 5800 5801 5802 5803 5804 5805 5805 5806 5806 5807 5807 5807 5807 5808 5808 5808 5808 5808 5808 5807 5807 5807 5808 5808 5807 5806 5805 5805 5804 5804 5803 5802 5801 5801 5800 5799 5798 5797 5796 5796 5795 5795 5794 5791 5789 5787 5787 5787 5786 5784 5782 5780 5779 5777 5776 5775 5774 5773 5771 5770 5768 5767
5759 5761 5762 5763 5765 5768 5770 5772 5774 5776 5777 5779 5780 5782 5783 5785 5786 5787 5788 5789 5790 5792 5793 5794 5794 5795 5796 5797 5798 5799 5799 5800 5800 5800 5800 5800 5800 5801 5801 5800 5800 5800 5799 5799 5799 5799 5799 5798 5797 5796 5796 5795 5795 5794 5793 5792 5791 5790 5789 5788 5787 5786 5786 5785 5785 5782 5779 5777 5777 5776 5776 5775 5773 5771 5769 5767 5765 5765 5764 5763 5761 5760 5758 5756 5755
5752 5755 5756 5758 5760 5761 5763 5765 5767 5769 5771 5772 5773 5775 5777 5778 5780 5781 5782 5783 5784 5785 5786 5787 5788 5789 5789 5790 5791 5792 5792 5793 5793 5793 5793 5793 5793 5793 5793 5793 5793 5792 5791 5791 5791 5791 5790 5789 5788 5788 5787 5786 5785 5784 5783 5782 5781 5780 5779 5778 5778 5777 5777 5775 5773 5771 5769 5768 5767 5766 5764 5763 5761 5760 5757 5755 5753 5752 5751 5750 5749 5747 5746 5744 5742
5745 5748 5750 5752 5754 5756 5758 5760 5761 5763 5764 5766 5767 5769 5770 5772 5773 5775 5776 5777 5778 5779 5780 5781 5781 5782 5782 5783 5784 5785 5785 5785 5786 5786 5786 5786 5786 5786 5786 5786 5785 5784 5784 5784 5784 5783 5782 5782 5781 5780 5779 5777 5776 5776 5774 5773 5772 5770 5769 5768 5768 5768 5767 5764 5761 5760 5759 5758 5757 5755 5753 5752 5750 5748 5746 5744 5742 5740 5739 5737 5735 5734 5733 5731 5729
5738 5741 5744 5746 5748 5750 5752 5754 5756 5757 5758 5760 5761 5763 5764 5766 5767 5769 5769 5770 5771 5772 5773 5774 5775 5775 5776 5776 5776 5777 5777 5778 5778 5778 5779 5779 5779 5779 5779 5778 5778 5777 5777 5776 5776 5775 5774 5774 5773 5772 5771 5769 5768 5767 5765 5764 5762 5761 5759 5759 5759 5758 5755 5752 5750 5750 5749 5747 5745 5744 5742 5740 5738 5736 5734 5732 5730 5728 5726 5724 5723 5721 5720 5718 5716
5731 5734 5736 5739 5742 5744 5746 5748 5750 5751 5753 5754 5756 5757 5759 5760 5761 5763 5764 5764 5765 5766 5767 5768 5768 5769 5769 5769 5770 5770 5770 5771 5771 5771 5771 5771 5771 5771 5771 5771 5770 5769 5769 5769 5768 5767 5766 5765 5764 5763 5762 5761 5760 5759 5757 5755 5754 5751 5750 5750 5750 5748 5745 5742 5741 5740 5738 5736 5735 5733 5731 5729 5727 5725 5722 5720 5718 5716 5714 5712 5710 5709 5707 5705 5703
5725 5727 5729 5732 5735 5737 5739 5741 5743 5745 5747 5748 5750 5751 5753 5754 5755 5756 5757 5758 5759 5760 5761 5761 5762 5762 5763 5763 5763 5763 5764 5764 5764 5764 5764 5764 5763 5763 5763 5763 5762 5761 5761 5761 5760 5759 5758 5757 5756 5755 5754 5752 5751 5750 5748 5746 5745 5743 5741 5740 5739 5738 5735 5733 5731 5730 5728 5726 5724 5722 5720 5717 5715 5713 5711 5708 5706 5704 5702 5700 5698 5696 5694 5692 5690
5719 5721 5723 5726 5728 5730 5732 5734 5736 5738 5740 5741 5743 5745 5746 5747 5749 5750 5751 5752 5752 5753 5754 5755 5755 5756 5756 5756 5756 5757 5757 5756 5756 5757 5757 5756 5756 5756 5755 5755 5754 5753 5753 5752 5751 5750 5750 5748 5747 5746 5745 5743 5742 5741 5739 5738 5736 5734 5732 5730 5729 5727 5725 5723 5722 5720 5718 5716 5713 5711 5708 5706 5704 5701 5699 5697 5694 5692 5690 5687 5685 5683 5681 5679 5677
5713 5715 5717 5719 5721 5724 5726 5727 5729 5731 5733 5734 5736 5737 5739 5740 5742 5743 5744 5745 5745 5746 5747 5747 5748 5748 5749 5749 5749 5749 5749 5749 5749 5749 5749 5749 5748 5748 5747 5747 5746 5745 5744 5743 5742 5741 5741 5739 5738 5737 5735 5734 5733 5731 5730 5729 5727 5724 5722 5721 5719 5716 5714 5713 5711 5709 5707 5704 5702 5699 5696 5694 5692 5690 5687 5684 5682 5679 5676 5674 5672 5669 5667 5664 5662
5708 5710 5711 5713 5715 5717 5719 5721 5722 5724 5726 5728 5729 5731 5732 5733 5734 5736 5737 5737 5738 5739 5740 5740 5741 5741 5742 5742 5742 5742 5742 5742 5742 5741 5741 5741 5740 5740 5739 5739 5738 5737 5736 5735 5734 5733 5732 5730 5729 5728 5726 5725 5724 5722 5720 5719 5717 5714 5712 5711 5708 5705 5703 5701 5699 5697 5694 5691 5689 5686 5684 5682 5679 5676 5673 5671 5668 5665 5662 5660 5657 5654 5652 5649 5646